Regional Weather Roundup
Issued by NWS

Home | Current Version | Previous Version | Graphics & Text | Print | Product List | Glossary On
Versions: 1 2 3 4 5 6 7 8 9 10 11 12 13 14 15 16 17 18 19 20 21 22 23 24 25 26 27 28 29 30 31 32 33 34 35 36 37 38 39 40 41 42 43 44 45 46 47 48 49 50
000
ASUS43 KOAX 262210
RWRNE

WEATHER ROUNDUP FOR NEBRASKA
NATIONAL WEATHER SERVICE OMAHA NE
500 PM CDT SUN MAR 26 2017

NOTES: SATELLITE DATA IS BEING USED TO AUGMENT CLOUD COVER ABOVE
       12000 FEET.
       "FAIR" INDICATES FEW OR NO CLOUDS BELOW 12,000 FEET WITH NO
       SIGNIFICANT WEATHER AND/OR OBSTRUCTIONS TO VISIBILITY.

  * THESE STATIONS DO NOT REPORT WEATHER SUCH AS RAIN...SNOW OR FOG.

NEZ001>004-019>022-054>056-262300-
NEBRASKA PANHANDLE

CITY           SKY/WX    TMP DP  RH WIND       PRES   REMARKS
SCOTTSBLUFF    CLOUDY    52  36  54 NW13      29.92R
ALLIANCE       CLOUDY    55  35  47 NE9       29.88R
CHADRON        CLOUDY    50  39  66 N8        29.93S
KIMBALL        CLOUDY    49  39  67 NW16G22   29.92S
SIDNEY         PTSUNNY   55  37  50 N10       29.90R
$$

NEZ057>060-069>072-079>082-262300-
SOUTHWEST NEBRASKA

CITY           SKY/WX    TMP DP  RH WIND       PRES   REMARKS
NORTH PLATTE   MOSUNNY   60  40  47 W6        29.85S
IMPERIAL       CLOUDY    57  39  51 N7        29.85S
LEXINGTON      SUNNY     55  42  62 CALM      29.85S
MCCOOK         CLOUDY    53  41  63 CALM      29.86S
OGALLALA       CLOUDY    59  37  44 NW12      29.87R
$$

NEZ005>010-023>029-035>040-094-262300-
NORTH CENTRAL NEBRASKA

CITY           SKY/WX    TMP DP  RH WIND       PRES   REMARKS
VALENTINE      MOSUNNY   54  37  52 N7        29.88S
AINSWORTH      CLOUDY    53  39  60 NE5       29.88S
BROKEN BOW     SUNNY     57  39  51 NE7       29.84F
O`NEILL        CLOUDY    47  42  83 N6        29.91S
ORD            PTSUNNY   53  42  66 E6        29.87S
THEDFORD       CLOUDY    62  37  39 E5        29.85S
$$

NEZ041-046>049-061>064-073>077-083>087-262300-
SOUTH CENTRAL NEBRASKA

CITY           SKY/WX    TMP DP  RH WIND       PRES   REMARKS
GRAND ISLAND   CLOUDY    50  45  83 NE8       29.88F
AURORA         CLOUDY    49  45  85 NE5       29.87F
HASTINGS       CLOUDY    50  43  77 NE7       29.88F
HEBRON         CLOUDY    50  43  79 NE8       29.86F
HOLDREGE       PTSUNNY   51  42  71 NE7       29.86S
KEARNEY *      CLOUDY    48  39  71 N6        29.87F
YORK           CLOUDY    46  45  93 NE7       29.88F
$$

NEZ011>018-030>034-042>045-262300-
NORTHEAST NEBRASKA

CITY           SKY/WX    TMP DP  RH WIND       PRES   REMARKS
NORFOLK        CLOUDY    47  40  76 N6        29.90S
ALBION         CLOUDY    49  42  75 N6        29.90S
BLAIR          CLOUDY    48  42  80 N7        29.89F
FREMONT        CLOUDY    47  42  81 N3        29.91R
TEKAMAH        CLOUDY    49  41  74 N8        29.90F
WAYNE          CLOUDY    46  42  88 N9        29.91S
$$

NEZ050>053-065>068-078-088>093-262300-
SOUTHEAST NEBRASKA

CITY           SKY/WX    TMP DP  RH WIND       PRES   REMARKS
LINCOLN        CLOUDY    49  42  77 N5        29.90F
OMAHA EPPLEY   CLOUDY    50  41  71 N9        29.90S
BEATRICE       CLOUDY    48  43  84 NE6       29.88F
FALLS CITY     CLOUDY    49  43  80 N7        29.89F
NEBRASKA CITY  CLOUDY    47  42  82 N5        29.89F
PLATTSMOUTH    CLOUDY    49  39  70 CALM      29.90S
$$

NEZ044-045-051>053-067-262300-
OMAHA AREA

CITY           SKY/WX    TMP DP  RH WIND       PRES   REMARKS
OMAHA EPPLEY   CLOUDY    50  41  71 N9        29.90S
BLAIR          CLOUDY    48  42  80 N7        29.89F
FREMONT        CLOUDY    47  42  81 N3        29.91R
MILLARD        CLOUDY    50  43  76 CALM      29.91R
OFFUTT AFB     CLOUDY    49  40  71 CALM      29.90S
PLATTSMOUTH    CLOUDY    49  39  70 CALM      29.90S
WAHOO          CLOUDY    47  42  84 CALM      29.91R
$$



USA.gov is the U.S. government's official web portal to all federal, state and local government web resources and services.